Dewpoint
34 28 24 25 27 23 23 22 22 23 25 25 25 25 26 27 28 28 29 29 29 29 29 29 29 28 28 30 31 39 47 47 46 46 48 58 62 62 61 61 60 62 61 61
28 25 27 27 27 27 26 24 23 25 25 26 25 25 27 28 29 29 30 30 31 31 31 30 30 29 28 30 30 35 45 45 45 44 46 52 61 62 60 61 60 61 61 61
26 23 27 27 27 26 26 24 24 24 25 27 26 24 25 27 29 30 32 32 32 32 32 32 31 30 30 30 31 34 44 44 44 43 46 51 55 62 60 60 60 59 60 61
27 29 28 28 27 26 23 26 26 26 25 22 29 19 22 24 27 29 33 30 30 36 37 35 34 31 30 31 31 34 42 44 44 45 45 47 48 59 59 59 60 59 58 60
27 28 28 27 27 27 25 27 26 27 26 25 26 24 23 25 24 30 29 30 38 40 43 40 39 34 31 31 32 34 41 44 44 45 45 45 47 51 60 59 59 59 57 58
31 31 30 29 30 29 29 28 28 28 28 21 23 25 21 20 29 30 29 35 40 41 41 39 39 37 32 32 33 38 40 42 43 45 47 46 46 51 59 58 58 58 57 57
28 29 31 31 29 31 30 27 19 18 20 17 22 24 21 24 27 28 29 32 40 40 39 35 33 32 31 33 37 40 41 41 42 47 46 47 47 48 59 58 57 57 57 56
25 20 29 32 29 22 25 25 23 16 17 17 20 20 22 26 27 25 25 29 38 40 42 35 33 33 33 34 39 41 42 41 44 46 47 47 49 49 57 58 57 57 57 56
25 24 28 30 25 25 21 25 25 22 21 21 23 23 23 26 22 22 23 28 37 41 40 41 34 34 34 35 42 43 43 43 44 47 46 48 50 51 59 58 57 57 57 56
31 24 27 26 22 23 23 23 22 25 17 15 16 18 18 20 18 21 24 27 30 37 40 42 42 41 40 40 43 44 44 45 46 45 47 47 52 54 59 59 57 57 57 56
32 28 23 23 19 18 21 26 23 23 23 16 12 11 23 17 20 24 25 26 26 33 37 39 45 43 43 44 45 46 46 46 45 47 47 50 55 60 59 58 57 56 56 55
32 27 21 19 20 26 27 25 23 17 14 16 14 13 19 17 23 23 22 24 25 28 33 37 38 46 47 46 45 47 47 47 48 48 50 50 57 59 58 58 57 56 55 55
31 25 17 12 14 29 22 19 19 19 19 16 14 11 15 21 23 21 20 22 24 26 29 33 36 38 44 49 51 49 48 49 47 48 49 49 58 58 58 57 56 56 55 54
31 27 21 14 12 18 19 20 21 20 16 14 14 14 16 25 21 19 19 20 23 26 28 31 33 35 38 41 44 53 54 53 48 48 50 51 58 58 57 57 57 56 55 54
30 22 21 23 24 24 22 21 21 19 19 17 16 19 25 26 20 19 19 19 21 25 28 30 32 34 36 37 39 43 51 57 53 53 54 56 59 59 59 58 57 57 56 55
29 21 23 20 22 22 21 19 19 18 18 19 22 21 26 27 27 21 19 19 19 22 25 29 31 32 34 36 37 40 44 52 57 55 55 57 57 58 58 58 57 57 57 56
26 23 19 13 16 17 13 15 23 24 26 25 19 24 26 24 26 26 20 19 19 19 23 26 28 30 32 34 36 38 41 45 55 57 58 58 58 58 58 58 58 57 57 57
24 23 22 15 16 9 10 27 26 25 24 24 23 24 24 25 29 28 28 25 23 19 20 24 26 28 30 32 34 38 38 38 43 48 55 57 57 57 57 57 57 57 57 56
27 23 18 14 13 11 17 22 24 22 19 21 20 20 20 22 26 26 28 29 27 27 20 22 24 26 28 30 32 35 35 35 35 36 39 44 56 57 57 57 57 57 57 57
26 26 20 15 12 7 14 24 26 26 17 19 18 18 19 20 16 19 26 28 27 28 26 21 22 24 25 28 30 32 32 33 32 34 35 39 42 51 57 57 57 57 57 57
17 18 15 15 15 15 18 17 20 17 12 17 17 17 16 16 19 24 25 24 25 26 26 25 20 21 22 23 28 29 30 30 31 33 35 36 40 42 46 54 56 57 57 56
17 16 15 15 12 11 14 14 13 12 16 15 14 14 15 17 18 19 20 20 22 22 23 24 20 20 21 21 24 27 27 29 31 32 33 34 36 38 41 43 45 50 53 51
16 18 17 17 13 15 14 12 13 13 12 12 12 12 13 14 14 16 16 17 19 19 19 21 20 19 20 20 20 22 25 28 29 30 31 32 34 34 36 39 40 40 44 44
14 12 16 16 10 10 10 11 10 11 10 9 10 11 12 13 12 13 14 15 16 17 19 17 20 19 19 19 19 20 21 26 28 29 30 31 32 33 34 35 36 37 38 37
6 7 6 12 8 9 12 9 8 7 6 7 7 9 10 10 10 12 12 14 14 14 18 18 20 21 19 19 19 21 21 24 27 29 29 30 31 32 33 35 35 35 36 36
6 3 2 4 6 4 5 9 7 6 5 6 8 7 8 9 9 10 11 12 13 17 17 18 20 22 19 19 20 22 22 22 25 27 28 30 29 30 31 32 33 36 36 36
Wind_Speed
5 8 19 20 20 5 5 11 17 18 22 16 26 42 50 29 31 32 34 35 37 41 47 39 40 42 33 32 33 32 28 27 23 18 29 27 32 29 25 24 27 28 26 27
5 19 16 12 15 17 16 21 24 15 27 12 22 44 46 42 30 32 34 33 36 39 41 42 41 43 43 36 37 34 33 28 27 24 25 17 33 29 25 24 27 29 28 28
14 4 5 4 11 13 17 22 21 21 15 14 26 28 10 8 13 24 24 30 31 39 42 39 43 45 44 41 40 37 35 29 24 21 17 31 21 28 28 30 29 30 29 29
12 15 14 8 14 11 17 18 27 27 10 7 7 26 31 21 18 17 21 24 33 35 46 42 42 44 47 45 40 38 34 32 27 27 24 23 29 29 31 30 27 28 29 30
9 6 8 12 13 15 14 9 14 19 20 19 14 14 16 16 17 15 26 34 33 53 45 36 37 42 44 40 38 36 35 33 31 27 24 28 30 30 32 28 31 31 30 29
26 7 8 11 7 17 11 12 19 19 10 10 19 19 16 9 13 28 29 33 45 65 30 25 33 34 35 34 34 33 36 31 28 27 26 27 29 30 31 32 33 31 28 26
8 14 11 12 8 2 4 5 8 4 6 10 7 11 23 18 16 18 31 35 39 54 29 21 19 21 29 32 33 32 33 32 30 28 28 24 29 40 33 39 36 34 29 27
8 5 9 12 7 4 7 6 5 8 5 16 15 14 8 6 19 25 33 34 33 40 31 21 19 19 24 28 30 31 32 32 32 30 28 26 25 33 42 40 35 33 31 30
7 6 3 9 1 2 0 7 5 12 26 22 9 9 12 25 31 37 40 36 36 37 41 19 22 26 26 29 32 33 32 31 31 31 28 28 26 39 35 42 37 34 32 30
3 9 7 9 4 3 3 6 5 5 8 9 8 13 15 24 39 41 44 36 35 38 39 27 19 21 24 29 30 32 31 34 32 29 24 29 38 41 37 37 37 35 31 30
4 4 1 5 4 5 4 2 3 4 7 7 13 9 4 29 38 41 39 37 35 32 34 42 22 21 28 28 27 29 31 33 30 26 26 33 27 44 38 35 36 36 33 31
1 3 7 11 21 7 2 4 2 3 6 9 14 15 12 38 38 38 37 36 34 32 34 25 30 22 22 26 28 35 29 28 28 28 22 21 28 38 37 35 32 32 31 30
4 5 8 8 2 4 5 3 4 7 10 14 13 13 32 30 35 31 32 36 35 36 38 39 39 30 23 15 19 22 27 29 22 20 24 25 35 28 34 33 33 29 29 29
7 5 11 15 13 6 15 21 20 7 12 19 21 35 32 26 31 33 36 33 33 37 40 38 41 41 36 32 27 14 22 27 29 29 35 35 33 33 32 30 31 32 29 29
4 8 12 18 20 17 18 21 25 22 21 18 26 24 23 22 22 24 28 34 38 38 41 41 40 37 35 34 37 31 20 14 31 35 37 39 30 30 27 28 29 28 27 25
6 8 5 17 15 17 19 21 19 24 24 16 15 14 20 20 20 23 31 31 34 37 37 36 38 40 39 34 33 31 27 19 21 35 37 33 30 30 30 29 27 27 28 26
6 4 5 19 9 11 13 5 3 5 2 4 6 12 22 26 27 18 26 27 29 31 34 36 33 31 29 29 27 27 29 27 14 18 29 33 32 31 30 30 30 28 28 26
18 14 6 8 5 10 1 2 4 3 10 14 12 17 19 22 16 12 18 23 26 29 30 32 33 33 33 30 32 27 26 25 22 13 5 28 30 28 27 26 26 26 26 28
18 14 5 6 8 9 2 4 3 3 5 15 16 20 18 27 9 5 25 22 21 23 25 25 26 27 28 30 31 26 23 21 26 24 23 16 17 24 27 27 28 26 24 24
0 10 8 1 4 4 1 7 13 11 5 17 17 18 22 24 16 14 27 23 25 24 24 27 28 23 27 30 27 22 26 28 26 28 21 15 15 8 20 22 23 22 25 24
4 3 7 15 9 2 11 22 15 3 5 18 15 16 19 14 13 23 25 25 22 22 26 27 24 23 23 25 24 26 25 28 23 17 20 19 13 15 14 7 15 17 19 18
6 4 4 4 3 4 25 4 4 10 11 14 16 17 19 19 21 22 24 26 25 26 28 26 25 22 19 20 22 22 24 23 24 23 21 19 22 19 20 6 9 9 11 9
5 5 6 4 1 7 10 14 8 12 12 14 16 19 21 20 21 22 23 25 24 24 23 22 22 23 21 22 21 22 23 21 19 19 21 21 19 15 10 15 14 9 10 13
7 17 3 4 7 9 9 6 13 14 15 17 16 18 20 20 20 22 22 23 23 23 24 22 21 22 24 23 21 19 21 20 18 19 17 16 14 15 15 16 15 13 10 9
6 14 12 2 7 7 1 18 18 20 17 18 17 17 16 20 19 20 22 21 22 22 23 22 19 18 20 21 21 20 21 20 17 15 16 17 15 16 15 17 15 14 10 5
8 6 5 4 7 7 13 19 18 19 18 20 20 20 17 17 19 19 19 19 20 21 21 21 20 18 19 20 20 22 21 20 18 17 15 15 15 16 16 13 17 24 18 16
Wind_Direction
197 232 224 212 204 219 293 271 267 270 271 293 268 271 283 289 273 273 269 262 256 251 252 249 242 244 242 224 222 220 204 199 188 205 233 241 190 194 187 183 181 181 180 177
214 245 243 224 216 232 251 270 273 274 268 244 275 279 284 280 272 262 262 263 258 257 256 250 241 236 238 227 217 217 213 197 188 194 237 271 189 193 182 180 183 182 181 178
223 184 87 235 259 237 251 254 270 260 282 266 273 283 266 278 266 264 258 258 266 266 268 252 241 233 228 230 218 211 211 201 188 200 202 228 269 187 180 187 188 183 181 179
253 261 266 279 270 206 259 251 249 263 278 274 67 291 301 279 267 261 277 305 300 304 284 256 243 233 227 224 216 207 203 198 190 178 208 231 239 195 186 184 184 180 180 182
251 265 249 251 246 186 240 230 253 265 257 282 250 239 274 302 295 296 323 322 315 313 304 259 252 234 224 218 213 207 199 196 188 178 192 218 238 266 178 179 181 178 184 182
256 252 258 236 237 209 251 297 277 263 240 250 237 210 283 307 319 321 330 338 334 335 312 270 256 248 216 208 206 203 196 198 191 184 190 213 235 261 172 175 177 176 182 182
282 252 231 217 277 172 195 301 309 302 215 240 165 210 260 290 332 330 338 339 347 341 317 285 253 208 199 198 199 200 196 193 193 186 187 200 230 235 203 176 176 175 180 182
266 293 191 181 224 260 235 203 275 294 275 285 284 260 263 14 349 349 344 339 340 350 321 265 233 203 197 199 201 199 197 197 194 185 181 213 230 239 223 176 178 179 181 181
231 251 247 193 223 212 279 228 276 273 266 265 237 270 290 4 351 349 342 340 346 350 354 268 234 217 210 204 199 193 192 201 200 189 182 202 236 248 174 179 177 176 179 181
327 286 315 304 322 79 30 287 292 271 299 286 271 275 270 359 346 346 338 345 347 343 344 319 230 211 205 202 200 198 197 195 195 189 182 216 233 228 177 177 175 175 175 176
327 259 302 340 279 297 352 53 17 292 282 314 319 285 304 356 346 343 346 343 344 343 339 351 288 238 210 204 200 200 197 197 187 180 199 220 253 184 171 178 177 169 167 171
126 299 278 262 274 199 358 158 149 287 295 287 267 279 8 351 351 347 341 341 339 344 342 345 336 269 208 206 207 191 195 198 191 168 181 219 240 162 167 172 172 164 168 170
349 239 299 316 68 71 236 313 255 301 270 258 264 276 334 341 340 344 345 344 344 346 344 350 352 7 358 225 193 200 196 194 186 171 192 226 209 170 170 168 166 162 169 170
326 235 235 259 265 296 295 307 296 281 280 285 271 293 306 341 342 350 346 348 347 351 352 355 351 352 5 8 11 356 194 186 187 195 197 203 179 167 170 165 162 166 171 173
235 262 253 260 266 268 272 273 286 284 262 265 288 292 311 343 339 354 347 355 354 358 352 351 349 351 355 4 360 3 356 213 184 189 190 182 169 165 168 167 168 166 169 178
222 256 275 283 271 265 271 269 262 267 278 274 288 310 348 333 322 4 355 358 356 353 350 350 349 350 351 358 357 354 346 333 187 191 183 172 167 163 174 175 168 169 174 178
246 278 286 281 271 303 287 256 271 293 77 296 336 347 338 343 344 15 357 356 353 351 349 346 347 347 344 345 349 351 350 351 346 166 175 156 161 166 172 169 172 174 176 177
255 266 237 277 299 266 240 111 62 116 47 33 351 347 345 338 355 22 10 356 350 349 349 345 346 346 345 346 348 351 10 8 21 28 232 164 165 176 173 169 175 178 179 181
238 246 243 245 207 302 12 28 6 320 61 27 357 348 349 340 325 315 7 355 343 344 344 345 341 345 344 354 349 346 1 19 21 17 4 9 178 165 168 171 179 178 181 183
135 234 240 211 249 249 34 333 338 309 218 12 1 350 348 344 3 336 346 345 344 343 346 346 344 350 357 355 347 351 2 12 16 4 346 0 21 71 172 170 176 184 186 187
331 318 261 254 244 278 351 316 316 230 313 353 358 346 343 344 323 317 330 338 342 343 342 344 349 354 358 351 353 3 4 5 349 349 10 6 20 42 34 182 172 178 184 186
290 343 280 309 287 260 348 349 29 330 329 348 347 339 331 328 327 332 332 333 340 343 344 347 345 350 353 359 1 4 8 347 351 358 10 10 17 22 44 48 68 128 155 166
304 1 306 332 31 69 37 70 21 355 337 343 334 334 327 328 332 330 331 329 333 336 338 345 345 343 354 360 5 4 353 356 2 9 4 8 22 17 44 58 66 75 101 138
6 15 2 248 26 355 41 34 17 356 343 336 339 329 326 328 330 327 329 328 332 333 335 340 347 350 351 355 358 360 352 354 6 17 8 15 18 26 16 54 60 63 84 109
344 334 336 335 1 335 123 17 359 345 344 341 337 336 333 328 328 326 321 324 325 327 332 337 343 350 352 349 356 359 357 359 13 18 12 14 19 28 38 46 60 63 44 96
359 349 345 293 356 300 292 341 354 345 339 336 332 338 339 334 326 327 321 326 321 331 333 336 340 352 357 357 359 0 0 4 10 17 14 20 21 23 31 36 57 60 69 81